User: anonymous   Login
Location: Eimen
(51.8766°N, 9.7806°E)
Time: 09:09:20
(UTC+00:00)
Language:

FENGYUN 1C DEB - Orbit

View from above orbital plane
View from above orbital plane
View from above satellite
View from above satellite

Ground track
Ground track

The orbit data is extracted from the following two-line orbital elements,

1 30770U 99025AUG 24280.56797358  .00002917  00000-0  15341-2 0  9993
2 30770  98.6659 293.1466 0015105  82.7613  34.9447 14.14751109907945
Epoch (UTC): 06 October 2024 13:37:52
Eccentricity: 0.0015105
inclination: 98.6659°
perigee height: 832 km
apogee height: 854 km
right ascension of ascending node: 293.1466°
argument of perigee: 82.7613°
revolutions per day: 14.14751109
mean anomaly at epoch: 34.9447°
orbit number at epoch: 90794

The dashed part of the orbit path shows where the satellite is in the earth's shadow,  

DLR